Simultaneous Nadir Overpasses (SNOs) Predictions

Prediction of SNOs between GOES-14 and NOAA-20 Satellite Orbit:

Table of predicted SNOs for the next 14.0 days since TLE Epoch: 7/30/2022
Index Date Time (GOES-14) GOES-14 Lat,Lon NOAA-20 Lat,Lon Distance(km) Time Diff (sec)
1 07/30/2022 20:27:11 0.37,-104.71 0.09,-105.87 132.10 80
2 07/31/2022 20:11:05 0.35,-104.71 1.11,-101.34 385.02 80
3 08/02/2022 08:32:51 -0.39,-104.43 0.08,-106.60 246.47 80
4 08/03/2022 08:11:25 -0.37,-104.42 -0.87,-102.05 269.67 80
5 08/04/2022 20:33:21 0.40,-104.69 -0.23,-107.37 306.35 80
6 08/05/2022 20:17:16 0.39,-104.69 0.78,-102.84 210.58 80
7 08/07/2022 08:39:02 -0.42,-104.42 0.41,-108.10 419.52 80
8 08/08/2022 08:17:37 -0.41,-104.41 -0.61,-103.57 95.83 80
9 08/09/2022 20:39:33 0.44,-104.64 -0.49,-108.89 483.16 80
10 08/10/2022 20:23:26 0.43,-104.64 0.47,-104.34 33.57 80
